Location: Arrien
(43.3167°N, 0.1500°W)
Time: 23:31:51
(UTC+00:00)

ATLAS 3B R/B - Pass Details

Date: 15 October 2021
Orbit: 989 x 1206 km, 63.8° (Epoch: 25 November)

Event Time Altitude Azimuth Distance (km) Brightness Sun altitude
Rises 19:11:44 0° 242° (WSW) 3,711 6.4 -21.5°
Reaches altitude 10° 19:14:28 10° 250° (WSW) 2,782 5.7 -22.0°
Maximum altitude 19:20:32 39° 318° (NW) 1,508 3.8 -23.1°
Drops below altitude 10° 19:26:54 10° 26° (NNE) 2,915 4.8 -24.3°
Enters shadow 19:28:44 - 32° (NNE) 3,530 5.2 -24.6°
